Date String (YYYY-MM-DD hh:mm:ss) UTC,Instrument flags,absolute air pressure of the measurement (hPa),sample flow rate (lpm),inlet stack bypass flow (lpm),air temperature of the measurement (°C),ambient temperature measured by the external sensor (°C),aerosol sample conditioner tube jacket temperature (°C),OPC LED temperature (°C),internal box temperature (°C),relative humidity of the measurement (%),span deviation,mass concentration of particles derived from Lorenz-Mie calculation of OPC scattering (μg/m³),mass concentration of particles derived from Lorenz-Mie calculation of OPC scattering (μg/m³),mass concentration of particles derived from Lorenz-Mie calculation of OPC scattering (μg/m³)
DateTimeUTC,F1_M11,P_M11,Q1_M11,Q2_M11,T1_M11,T2_M11,T3_M11,T4_M11,T5_M11,U1_M11,ZSPAN_M11,X0_M11,X2_M11,X1_M11
2024-06-04 21:00:00,SystemResetWarning,0824.9,5.01,000.00,028.9,027.7,000.0,037.3,030.6,013.9,0000.0,0006.36,0001.92,0001.14
2024-06-04 21:01:00,SystemResetWarning,0824.9,5.01,000.00,029.0,028.0,000.0,037.3,030.7,014.0,0000.0,0006.86,0001.97,0001.14
2024-06-04 21:02:00,SystemResetWarning,0824.9,5.00,000.00,029.1,028.2,000.0,037.3,030.8,014.1,0000.0,0007.16,0001.96,0001.14
2024-06-04 21:03:00,SystemResetWarning,0824.9,4.99,000.00,029.1,028.5,000.0,037.3,030.9,014.2,0000.0,0007.80,0001.97,0001.15
2024-06-04 21:04:00,SystemResetWarning,0824.9,4.99,000.00,029.2,028.6,000.0,037.4,031.0,013.9,0000.0,0007.35,0001.95,0001.15
2024-06-04 21:05:00,SystemResetWarning,0824.9,5.01,000.00,029.3,028.8,000.0,037.4,031.1,014.2,0000.0,0006.82,0001.92,0001.14
2024-06-04 21:06:00,SystemResetWarning,0824.9,5.01,000.00,029.4,028.9,000.0,037.4,031.2,013.6,0000.0,0006.88,0001.93,0001.14
2024-06-04 21:07:00,SystemResetWarning,0825.0,5.00,000.00,029.4,029.0,000.0,037.5,031.3,013.6,0000.0,0006.80,0001.91,0001.13
2024-06-04 21:08:00,SystemResetWarning,0825.0,4.99,000.00,029.5,029.2,000.0,037.5,031.4,014.0,0000.0,0006.65,0001.85,0001.12
2024-06-04 21:09:00,SystemResetWarning,0825.0,5.00,000.00,029.6,029.1,000.0,037.6,031.3,013.9,0000.0,0006.68,0001.88,0001.13
2024-06-04 21:10:00,SystemResetWarning,0824.9,4.99,000.00,029.4,027.2,000.0,037.7,030.4,013.9,0000.0,0006.71,0001.91,0001.13
2024-06-04 21:11:00,SystemResetWarning,0824.9,5.02,000.00,029.0,025.6,000.0,037.7,029.6,014.0,0000.0,0006.63,0001.92,0001.13
2024-06-04 21:12:00,SystemResetWarning,0824.9,5.00,000.00,028.8,026.0,000.0,037.6,029.7,014.2,0000.0,0006.30,0001.91,0001.14
2024-06-04 21:13:00,SystemResetWarning,0824.9,4.99,000.00,028.8,026.5,000.0,037.5,030.0,014.4,0000.0,0006.11,0001.91,0001.14
2024-06-04 21:14:00,SystemResetWarning,0824.9,5.00,000.00,028.8,026.9,000.0,037.4,030.2,014.1,0000.0,0004.87,0001.92,0001.14
2024-06-04 21:15:00,SystemResetWarning,0825.0,5.00,000.00,028.9,027.3,000.0,037.4,030.4,014.3,0000.0,0004.95,0001.94,0001.14
2024-06-04 21:16:00,SystemResetWarning,0824.9,5.00,000.00,028.9,027.7,000.0,037.3,030.6,014.5,0000.0,0004.29,0001.89,0001.13
2024-06-04 21:17:00,SystemResetWarning,0824.9,5.00,000.00,029.0,028.0,000.0,037.3,030.7,014.2,0000.0,0005.01,0001.86,0001.13
2024-06-04 21:18:00,SystemResetWarning,0824.9,5.00,000.00,029.1,028.3,000.0,037.3,030.8,013.9,0000.0,0005.75,0001.90,0001.15
2024-06-04 21:19:00,SystemResetWarning,0824.9,4.99,000.00,029.1,028.5,000.0,037.3,030.9,014.1,0000.0,0006.13,0002.01,0001.16
2024-06-04 21:20:00,SystemResetWarning,0824.9,5.00,000.00,029.2,028.7,000.0,037.3,031.0,014.2,0000.0,0006.70,0002.12,0001.16
2024-06-04 21:21:00,SystemResetWarning,0824.9,5.00,000.00,029.3,028.8,000.0,037.4,031.1,014.2,0000.0,0006.77,0002.12,0001.17
2024-06-04 21:22:00,SystemResetWarning,0824.9,5.00,000.00,029.4,029.0,000.0,037.4,031.2,014.2,0000.0,0006.94,0002.13,0001.17
2024-06-04 21:23:00,SystemResetWarning,0824.9,4.99,000.00,029.5,029.1,000.0,037.5,031.3,013.9,0000.0,0007.26,0002.09,0001.18
2024-06-04 21:24:00,SystemResetWarning,0825.0,5.00,000.00,029.5,029.2,000.0,037.5,031.4,013.7,0000.0,0007.69,0002.10,0001.18
2024-06-04 21:25:00,SystemResetWarning,0824.9,4.99,000.00,029.5,028.3,000.0,037.6,030.9,013.8,0000.0,0007.73,0002.12,0001.17
2024-06-04 21:26:00,SystemResetWarning,0824.9,5.01,000.00,029.1,025.9,000.0,037.6,029.7,014.4,0000.0,0007.58,0002.12,0001.18
2024-06-04 21:27:00,SystemResetWarning,0824.9,5.01,000.00,028.8,025.6,000.0,037.6,029.5,015.5,0000.0,0007.54,0002.15,0001.19
2024-06-04 21:28:00,SystemResetWarning,0824.8,4.99,000.00,028.7,026.2,000.0,037.5,029.8,016.1,0000.0,0007.08,0002.18,0001.18
2024-06-04 21:29:00,SystemResetWarning,0824.9,5.00,000.00,028.7,026.7,000.0,037.4,030.1,015.2,0000.0,0006.39,0002.15,0001.17
2024-06-04 21:30:00,SystemResetWarning,0824.9,5.00,000.00,028.8,027.1,000.0,037.4,030.3,015.3,0000.0,0006.21,0002.08,0001.16
2024-06-04 21:31:00,SystemResetWarning,0824.9,5.01,000.00,028.9,027.5,000.0,037.3,030.5,014.9,0000.0,0006.09,0001.91,0001.14
2024-06-04 21:32:00,SystemResetWarning,0824.9,4.99,000.00,028.9,027.8,000.0,037.3,030.7,015.4,0000.0,0006.75,0001.87,0001.13
2024-06-04 21:33:00,SystemResetWarning,0824.9,5.00,000.00,029.0,028.1,000.0,037.3,030.8,014.4,0000.0,0006.75,0001.88,0001.12
2024-06-04 21:34:00,SystemResetWarning,0824.9,5.00,000.00,029.1,028.4,000.0,037.3,030.9,014.5,0000.0,0006.47,0001.91,0001.11
2024-06-04 21:35:00,SystemResetWarning,0824.9,5.00,000.00,029.2,028.6,000.0,037.4,031.0,014.6,0000.0,0005.68,0001.90,0001.11
2024-06-04 21:36:00,SystemResetWarning,0824.9,5.00,000.00,029.2,028.8,000.0,037.4,031.1,014.5,0000.0,0005.67,0001.90,0001.10
2024-06-04 21:37:00,SystemResetWarning,0824.9,5.01,000.00,029.3,028.9,000.0,037.4,031.2,015.0,0000.0,0006.30,0001.89,0001.10
2024-06-04 21:38:00,SystemResetWarning,0824.9,5.00,000.00,029.4,029.0,000.0,037.5,031.3,015.2,0000.0,0006.52,0001.90,0001.10
2024-06-04 21:39:00,SystemResetWarning,0824.9,4.99,000.00,029.5,029.2,000.0,037.5,031.4,014.9,0000.0,0006.61,0001.91,0001.10
2024-06-04 21:40:00,SystemResetWarning,0824.9,4.99,000.00,029.5,029.3,000.0,037.6,031.4,015.3,0000.0,0007.01,0002.03,0001.11
2024-06-04 21:41:00,SystemResetWarning,0824.9,4.99,000.00,029.5,028.3,000.0,037.6,030.8,015.3,0000.0,0007.84,0002.06,0001.13
2024-06-04 21:42:00,SystemResetWarning,0824.9,5.00,000.00,029.1,025.9,000.0,037.7,029.7,015.5,0000.0,0007.73,0002.13,0001.14
2024-06-04 21:43:00,SystemResetWarning,0824.9,5.02,000.00,028.8,025.6,000.0,037.6,029.5,014.9,0000.0,0008.03,0002.13,0001.15
2024-06-04 21:44:00,SystemResetWarning,0824.9,4.99,000.00,028.7,026.2,000.0,037.5,029.8,015.4,0000.0,0009.15,0002.13,0001.16
2024-06-04 21:45:00,SystemResetWarning,0824.9,4.99,000.00,028.7,026.7,000.0,037.4,030.1,015.5,0000.0,0009.57,0002.12,0001.16
2024-06-04 21:46:00,SystemResetWarning,0824.9,5.00,000.00,028.8,027.1,000.0,037.4,030.3,015.5,0000.0,0009.61,0002.11,0001.16
2024-06-04 21:47:00,SystemResetWarning,0824.9,5.01,000.00,028.8,027.5,000.0,037.4,030.5,014.8,0000.0,0009.94,0002.13,0001.18
2024-06-04 21:48:00,SystemResetWarning,0824.9,5.01,000.00,028.9,027.8,000.0,037.3,030.7,014.9,0000.0,0009.81,0002.18,0001.18
2024-06-04 21:49:00,SystemResetWarning,0825.0,4.99,000.00,029.0,028.1,000.0,037.3,030.8,015.7,0000.0,0009.59,0002.20,0001.18
2024-06-04 21:50:00,SystemResetWarning,0825.1,4.99,000.00,029.1,028.4,000.0,037.3,030.9,014.9,0000.0,0009.56,0002.21,0001.18
2024-06-04 21:51:00,SystemResetWarning,0825.1,5.00,000.00,029.1,028.6,000.0,037.4,031.0,014.9,0000.0,0009.39,0002.12,0001.17
2024-06-04 21:52:00,SystemResetWarning,0825.1,4.99,000.00,029.2,028.8,000.0,037.4,031.1,015.4,0000.0,0008.70,0002.09,0001.16
2024-06-04 21:53:00,SystemResetWarning,0825.1,4.99,000.00,029.3,028.9,000.0,037.4,031.2,015.7,0000.0,0008.66,0002.11,0001.15
2024-06-04 21:54:00,SystemResetWarning,0825.0,5.00,000.00,029.4,029.1,000.0,037.5,031.3,015.4,0000.0,0007.89,0002.15,0001.14
2024-06-04 21:55:00,SystemResetWarning,0825.0,5.00,000.00,029.5,029.2,000.0,037.5,031.4,015.0,0000.0,0006.74,0002.14,0001.13
2024-06-04 21:56:00,SystemResetWarning,0825.0,5.00,000.00,029.4,028.0,000.0,037.6,030.7,015.8,0000.0,0007.07,0002.11,0001.12
2024-06-04 21:57:00,SystemResetWarning,0824.9,5.00,000.00,029.0,025.7,000.0,037.6,029.6,015.7,0000.0,0007.33,0002.09,0001.11
2024-06-04 21:58:00,SystemResetWarning,0824.9,5.01,000.00,028.7,025.6,000.0,037.6,029.6,015.6,0000.0,0007.20,0002.06,0001.10
2024-06-04 21:59:00,SystemResetWarning,0824.9,5.01,000.00,028.7,026.2,000.0,037.5,029.8,015.5,0000.0,0007.33,0002.04,0001.09
